Clarksburg, WV

11:27 PM EDT on July 24, 2017 (GMT -0400)
Benedum

Weather History for KCKB - September, 2013

Change the Weather History Date:

Saturday, September 14, 2013

  Actual Average Record
Temperature  
Mean Temperature 53 °F -  
Max Temperature 64 °F 78 °F 97 °F (1952)
Min Temperature 42 °F 54 °F 33 °F (1964)
Degree Days  
Heating Degree Days 12    
Growing Degree Days 3 (Base 50)    
Moisture  
Dew Point 45 °F    
Average Humidity 82    
Maximum Humidity 100    
Minimum Humidity 46    
Precipitation  
Precipitation 0.00 in - - ()
Sea Level Pressure  
Sea Level Pressure 30.11 in    
Wind  
Wind Speed 1 mph (NW)    
Max Wind Speed 7 mph    
Max Gust Speed -    
Visibility 6 miles    
Events Fog    
Averages and records for this station are not official NWS values.
T = Trace of Precipitation, MM = Missing Value Source: NWS Daily Summary

Daily Weather History Graph

Daily Weather History Graph

Search for Another Location

Airport or City:

Trip Planner

Search our weather history database for the weather conditions in past years. The results will help you decide how hot, cold, wet, or windy it might be!

Date:

Astronomy

Sep. 14, 2013 Rise Set
Actual Time 7:01 AM EDT 7:30 PM EDT
Civil Twilight 6:34 AM EDT 7:57 PM EDT
Nautical Twilight 6:02 AM EDT 8:29 PM EDT
Astronomical Twilight 5:30 AM EDT 9:01 PM EDT
Moon 4:09 PM EDT (9/14) 1:33 AM EDT (9/14)
Length of Visible Light 13h 22m
Length of Day
12h 29m
Waxing Gibbous, 72% of the Moon is Illuminated
Sep 14
Waxing Gibbous
Sep 19
Full
Sep 26
Last Quarter
Oct 4
New
Oct 11
First Quarter

Hourly Weather History & Observations

Time (EDT) Temp. Dew Point Humidity Pressure Visibility Wind Dir Wind Speed Gust Speed Precip Events Conditions
12:53 AM 48.0 °F 46.0 °F 93% 30.04 in 10.0 mi Calm Calm - N/A   Clear
1:53 AM 48.0 °F 46.0 °F 93% 30.05 in 10.0 mi Calm Calm - N/A   Clear
2:53 AM 46.9 °F 45.0 °F 93% 30.04 in 9.0 mi Calm Calm - N/A   Clear
3:03 AM 46.4 °F 44.6 °F 93% 30.06 in 2.5 mi Calm Calm - N/A   Clear
3:11 AM 46.4 °F 44.6 °F 93% 30.06 in 8.0 mi Calm Calm - N/A   Clear
3:53 AM 46.9 °F 44.1 °F 90% 30.04 in 9.0 mi Calm Calm - N/A   Clear
4:25 AM 44.6 °F 42.8 °F 93% 30.07 in 1.8 mi Calm Calm - N/A   Clear
4:41 AM 44.6 °F 42.8 °F 93% 30.07 in 0.8 mi Calm Calm - N/A   Mist
4:53 AM 45.0 °F 43.0 °F 93% 30.05 in 0.5 mi Calm Calm - N/A Fog Fog
5:53 AM 44.1 °F 42.1 °F 93% 30.07 in 0.5 mi Calm Calm - N/A Fog Fog
6:53 AM 43.0 °F 42.1 °F 97% 30.08 in 0.5 mi Calm Calm - N/A Fog Fog
7:27 AM 42.8 °F 42.8 °F 100% 30.11 in 0.2 mi Calm Calm - N/A Fog Fog
7:53 AM 44.1 °F 43.0 °F 96% 30.11 in 0.2 mi Calm Calm - N/A Fog Fog
8:53 AM 46.9 °F 46.0 °F 97% 30.13 in 0.5 mi Calm Calm - N/A Fog Fog
9:28 AM 48.2 °F 46.4 °F 93% 30.15 in 1.0 mi Calm Calm - N/A   Overcast
9:37 AM 48.2 °F 46.4 °F 93% 30.15 in 1.0 mi Calm Calm - N/A   Overcast
9:44 AM 48.2 °F 46.4 °F 93% 30.15 in 3.0 mi Calm Calm - N/A   Overcast
9:53 AM 50.0 °F 46.9 °F 89% 30.14 in 3.0 mi Calm Calm - N/A   Overcast
10:53 AM 55.0 °F 46.0 °F 72% 30.16 in 10.0 mi West 3.5 mph - N/A   Mostly Cloudy
11:53 AM 57.0 °F 44.1 °F 62% 30.16 in 10.0 mi NW 5.8 mph - N/A   Mostly Cloudy
12:53 PM 59.0 °F 44.1 °F 58% 30.14 in 10.0 mi NW 6.9 mph - N/A   Mostly Cloudy
1:53 PM 61.0 °F 43.0 °F 52% 30.13 in 10.0 mi Variable 3.5 mph - N/A   Mostly Cloudy
2:53 PM 62.1 °F 45.0 °F 53% 30.12 in 10.0 mi NNE 3.5 mph - N/A   Overcast
3:53 PM 62.1 °F 44.1 °F 52% 30.11 in 10.0 mi NNE 4.6 mph - N/A   Scattered Clouds
4:53 PM 64.9 °F 44.1 °F 47% 30.11 in 10.0 mi Calm Calm - N/A   Clear
5:53 PM 64.0 °F 43.0 °F 46% 30.12 in 10.0 mi West 3.5 mph - N/A   Clear
6:53 PM 63.0 °F 44.1 °F 50% 30.13 in 10.0 mi Calm Calm - N/A   Clear
7:53 PM 54.0 °F 48.0 °F 80% 30.14 in 10.0 mi Calm Calm - N/A   Clear
8:53 PM 53.1 °F 48.9 °F 86% 30.15 in 10.0 mi Calm Calm - N/A   Clear
9:53 PM 50.0 °F 46.9 °F 89% 30.16 in 10.0 mi Calm Calm - N/A   Clear
10:53 PM 48.9 °F 46.0 °F 90% 30.17 in 10.0 mi Calm Calm - N/A   Clear
11:53 PM 48.0 °F 45.0 °F 89% 30.17 in 10.0 mi Calm Calm - N/A   Clear